"Sample Date","Sample Time","Sample Value","Units","Flow Rate","Sample Interval","Number Channels","Micron Size 0","Counts/Channel 0","Micron Size 1","Counts/Channel 1","Micron Size 2","Counts/Channel 2","Micron Size 3","Counts/Channel 3","Micron Size 4","Counts/Channel 4","Micron Size 5","Counts/Channel 5","Micron Size 6","Counts/Channel 6","Micron Size 7","Counts/Channel 7","Micron Size 8","Counts/Channel 8","Micron Size 9","Counts/Channel 9","Micron Size 10","Counts/Channel 10","Micron Size 11","Counts/Channel 11","Micron Size 12","Counts/Channel 12","Micron Size 13","Counts/Channel 13","Micron Size 14","Counts/Channel 14","Micron Size 15","Counts/Channel 15","Micron Size 16","Counts/Channel 16","Micron Size 17","Counts/Channel 17","Micron Size 18","Counts/Channel 18","Micron Size 19","Counts/Channel 19","Micron Size 20","Counts/Channel 20","Micron Size 21","Counts/Channel 21","Micron Size 22","Counts/Channel 22","Micron Size 23","Counts/Channel 23","Micron Size 24","Counts/Channel 24","Micron Size 25","Counts/Channel 25","Micron Size 26","Counts/Channel 26","Micron Size 27","Counts/Channel 27","Micron Size 28","Counts/Channel 28","Micron Size 29","Counts/Channel 29","Micron Size 30","Counts/Channel 30","Micron Size 31","Counts/Channel 31"
"04/02/08","11:00:01",37448.000,"cc",28289.889,6.00,6,0.100,33800.000,0.200,2070.000,0.300,644.000,0.500,681.000,1.000,253.000,5.000,0
"04/02/08","11:00:07",37307.000,"cc",28303.834,6.00,6,0.100,33700.000,0.200,2137.000,0.300,628.000,0.500,612.000,1.000,230.000,5.000,0
"04/02/08","11:00:13",37113.000,"cc",28351.951,6.00,6,0.100,33671.000,0.200,1951.000,0.300,643.000,0.500,606.000,1.000,242.000,5.000,0
"04/02/08","11:00:19",47595.000,"cc",28309.789,6.00,6,0.100,43599.000,0.200,2620.000,0.300,541.000,0.500,599.000,1.000,236.000,5.000,0
"04/02/08","11:00:25",87219.000,"cc",28317.783,6.00,6,0.100,80380.000,0.200,5425.000,0.300,662.000,0.500,529.000,1.000,223.000,5.000,0
"04/02/08","11:00:31",42831.000,"cc",28346.705,6.00,6,0.100,39355.000,0.200,2271.000,0.300,495.000,0.500,541.000,1.000,169.000,5.000,0
"04/02/08","11:00:37",45443.000,"cc",28351.065,6.00,6,0.100,41783.000,0.200,2459.000,0.300,501.000,0.500,520.000,1.000,180.000,5.000,0
"04/02/08","11:00:43",26693.000,"cc",28277.432,6.00,6,0.100,24165.000,0.200,1231.000,0.300,539.000,0.500,543.000,1.000,215.000,5.000,0
"04/02/08","11:00:49",41009.000,"cc",28299.486,6.00,6,0.100,37279.000,0.200,2204.000,0.300,634.000,0.500,648.000,1.000,244.000,5.000,0
"04/02/08","11:00:55",37521.000,"cc",28329.793,6.00,6,0.100,33844.000,0.200,2074.000,0.300,686.000,0.500,666.000,1.000,251.000,5.000,0
"04/02/08","11:01:01",43247.000,"cc",28299.627,6.00,6,0.100,38371.000,0.200,2718.000,0.300,900.000,0.500,902.000,1.000,356.000,5.000,0
"04/02/08","11:01:07",36975.000,"cc",28354.666,6.00,6,0.100,32103.000,0.200,2400.000,0.300,1075.000,0.500,1024.000,1.000,373.000,5.000,0
"04/02/08","11:01:13",42857.000,"cc",28305.352,6.00,6,0.100,38572.000,0.200,2513.000,0.300,745.000,0.500,740.000,1.000,287.000,5.000,0
"04/02/08","11:01:19",38307.000,"cc",28340.133,6.00,6,0.100,34451.000,0.200,2089.000,0.300,757.000,0.500,751.000,1.000,259.000,5.000,0
"04/02/08","11:01:25",32318.000,"cc",28281.250,6.00,6,0.100,29085.000,0.200,1746.000,0.300,641.000,0.500,622.000,1.000,224.000,5.000,0
"04/02/08","11:01:31",59733.000,"cc",28289.668,6.00,6,0.100,54691.000,0.200,3587.000,0.300,625.000,0.500,611.000,1.000,219.000,5.000,0
"04/02/08","11:01:37",42648.000,"cc",28311.697,6.00,6,0.100,38341.000,0.200,2491.000,0.300,783.000,0.500,735.000,1.000,298.000,5.000,0
"04/02/08","11:01:43",22318.000,"cc",28387.647,6.00,6,0.100,19375.000,0.200,1136.000,0.300,703.000,0.500,787.000,1.000,317.000,5.000,0
"04/02/08","11:01:49",32223.000,"cc",28299.535,6.00,6,0.100,28637.000,0.200,1758.000,0.300,796.000,0.500,753.000,1.000,279.000,5.000,0
"04/02/08","11:01:55",32100.000,"cc",28240.260,6.00,6,0.100,29008.000,0.200,1645.000,0.300,605.000,0.500,629.000,1.000,213.000,5.000,0
"04/02/08","11:02:01",39873.000,"cc",28329.383,6.00,6,0.100,36362.000,0.200,2154.000,0.300,603.000,0.500,564.000,1.000,190.000,5.000,0
"04/02/08","11:02:07",41413.000,"cc",28351.006,6.00,6,0.100,37791.000,0.200,2258.000,0.300,577.000,0.500,566.000,1.000,221.000,5.000,0
"04/02/08","11:02:13",32695.000,"cc",28363.168,6.00,6,0.100,29154.000,0.200,1859.000,0.300,703.000,0.500,678.000,1.000,301.000,5.000,0
"04/02/08","11:02:19",31577.000,"cc",28316.590,6.00,6,0.100,28289.000,0.200,1702.000,0.300,677.000,0.500,660.000,1.000,249.000,5.000,0
"04/02/08","11:02:25",36959.000,"cc",28339.535,6.00,6,0.100,33404.000,0.200,2043.000,0.300,590.000,0.500,674.000,1.000,248.000,5.000,0
"04/02/08","11:02:31",31541.000,"cc",28232.145,6.00,6,0.100,28567.000,0.200,1583.000,0.300,569.000,0.500,586.000,1.000,236.000,5.000,0
"04/02/08","11:02:37",27375.000,"cc",28264.959,6.00,6,0.100,24881.000,0.200,1310.000,0.300,464.000,0.500,539.000,1.000,181.000,5.000,0
"04/02/08","11:02:43",31219.000,"cc",28314.066,6.00,6,0.100,28422.000,0.200,1547.000,0.300,528.000,0.500,530.000,1.000,192.000,5.000,0
"04/02/08","11:02:49",33326.000,"cc",28324.938,6.00,6,0.100,30259.000,0.200,1761.000,0.300,549.000,0.500,530.000,1.000,227.000,5.000,0
"04/02/08","11:02:55",44295.000,"cc",28324.428,6.00,6,0.100,40387.000,0.200,2444.000,0.300,632.000,0.500,602.000,1.000,230.000,5.000,0
"04/02/08","11:03:01",47005.000,"cc",28443.803,6.00,6,0.100,42685.000,0.200,2800.000,0.300,656.000,0.500,631.000,1.000,233.000,5.000,0
"04/02/08","11:03:07",55536.000,"cc",28204.078,6.00,6,0.100,50817.000,0.200,3319.000,0.300,575.000,0.500,619.000,1.000,206.000,5.000,0
"04/02/08","11:03:13",72041.000,"cc",28358.979,6.00,6,0.100,66228.000,0.200,4413.000,0.300,623.000,0.500,563.000,1.000,214.000,5.000,0
"04/02/08","11:03:19",52319.000,"cc",28319.955,6.00,6,0.100,48126.000,0.200,2938.000,0.300,521.000,0.500,536.000,1.000,198.000,5.000,0
"04/02/08","11:03:25",59890.000,"cc",28313.197,6.00,6,0.100,54405.000,0.200,3665.000,0.300,789.000,0.500,777.000,1.000,254.000,5.000,0
"04/02/08","11:03:31",41788.000,"cc",28319.020,6.00,6,0.100,37847.000,0.200,2302.000,0.300,716.000,0.500,702.000,1.000,221.000,5.000,0
"04/02/08","11:03:37",33866.000,"cc",28277.176,6.00,6,0.100,30521.000,0.200,1802.000,0.300,594.000,0.500,706.000,1.000,243.000,5.000,0
"04/02/08","11:03:43",59396.000,"cc",28342.113,6.00,6,0.100,54254.000,0.200,3640.000,0.300,669.000,0.500,606.000,1.000,227.000,5.000,0
"04/02/08","11:03:49",78110.000,"cc",28337.106,6.00,6,0.100,71285.000,0.200,5018.000,0.300,805.000,0.500,736.000,1.000,266.000,5.000,0
"04/02/08","11:03:55",68899.000,"cc",28266.680,6.00,6,0.100,62999.000,0.200,4177.000,0.300,725.000,0.500,751.000,1.000,247.000,5.000,0
"04/02/08","11:04:01",67985.000,"cc",28344.043,6.00,6,0.100,62092.000,0.200,4275.000,0.300,710.000,0.500,681.000,1.000,227.000,5.000,0
"04/02/08","11:04:07",57032.000,"cc",28292.568,6.00,6,0.100,51548.000,0.200,3634.000,0.300,764.000,0.500,779.000,1.000,307.000,5.000,0
"04/02/08","11:04:13",41806.000,"cc",28320.756,6.00,6,0.100,37823.000,0.200,2413.000,0.300,629.000,0.500,705.000,1.000,236.000,5.000,0
"04/02/08","11:04:19",48551.000,"cc",28290.356,6.00,6,0.100,44039.000,0.200,2882.000,0.300,705.000,0.500,670.000,1.000,255.000,5.000,0
"04/02/08","11:04:25",86506.000,"cc",28344.049,6.00,6,0.100,78711.000,0.200,5728.000,0.300,944.000,0.500,834.000,1.000,289.000,5.000,0
"04/02/08","11:04:31",34658.000,"cc",28315.973,6.00,6,0.100,29363.000,0.200,2439.000,0.300,1184.000,0.500,1202.000,1.000,470.000,5.000,0
"04/02/08","11:04:37",80414.000,"cc",28298.555,6.00,6,0.100,72498.000,0.200,5436.000,0.300,1055.000,0.500,1033.000,1.000,392.000,5.000,0
"04/02/08","11:04:43",65909.000,"cc",28389.988,6.00,6,0.100,59418.000,0.200,4363.000,0.300,914.000,0.500,922.000,1.000,292.000,5.000,0
"04/02/08","11:04:49",28779.000,"cc",28298.549,6.00,6,0.100,24556.000,0.200,1805.000,0.300,1012.000,0.500,1049.000,1.000,357.000,5.000,0
"04/02/08","11:04:55",45187.000,"cc",28305.055,6.00,6,0.100,40497.000,0.200,2611.000,0.300,889.000,0.500,860.000,1.000,330.000,5.000,0
"04/02/08","11:05:01",34496.000,"cc",28312.584,6.00,6,0.100,30738.000,0.200,1906.000,0.300,719.000,0.500,807.000,1.000,326.000,5.000,0
"04/02/08","11:05:07",40758.000,"cc",28249.070,6.00,6,0.100,36017.000,0.200,2538.000,0.300,928.000,0.500,912.000,1.000,363.000,5.000,0
"04/02/08","11:05:13",36454.000,"cc",28340.379,6.00,6,0.100,31375.000,0.200,2479.000,0.300,1120.000,0.500,1098.000,1.000,382.000,5.000,0
"04/02/08","11:05:19",60085.000,"cc",28339.022,6.00,6,0.100,53228.000,0.200,3977.000,0.300,1235.000,0.500,1217.000,1.000,428.000,5.000,0
"04/02/08","11:05:25",79455.000,"cc",28309.430,6.00,6,0.100,71110.000,0.200,5444.000,0.300,1203.000,0.500,1245.000,1.000,453.000,5.000,0
"04/02/08","11:05:31",52228.000,"cc",28341.377,6.00,6,0.100,47206.000,0.200,3130.000,0.300,766.000,0.500,840.000,1.000,286.000,5.000,0
"04/02/08","11:05:37",33667.000,"cc",28236.158,6.00,6,0.100,29950.000,0.200,1913.000,0.300,727.000,0.500,795.000,1.000,282.000,5.000,0
"04/02/08","11:05:43",45572.000,"cc",28391.811,6.00,6,0.100,40903.000,0.200,2767.000,0.300,804.000,0.500,820.000,1.000,278.000,5.000,0
"04/02/08","11:05:49",70204.000,"cc",28271.266,6.00,6,0.100,64044.000,0.200,4460.000,0.300,755.000,0.500,693.000,1.000,252.000,5.000,0
"04/02/08","11:05:55",59039.000,"cc",28333.650,6.00,6,0.100,53654.000,0.200,3470.000,0.300,805.000,0.500,845.000,1.000,265.000,5.000,0
"04/02/08","11:06:01",65662.000,"cc",28318.680,6.00,6,0.100,59360.000,0.200,4118.000,0.300,971.000,0.500,890.000,1.000,323.000,5.000,0
"04/02/08","11:06:07",43030.000,"cc",28352.955,6.00,6,0.100,39173.000,0.200,2328.000,0.300,639.000,0.500,669.000,1.000,221.000,5.000,0
"04/02/08","11:06:13",37748.000,"cc",28277.293,6.00,6,0.100,34281.000,0.200,2048.000,0.300,577.000,0.500,619.000,1.000,223.000,5.000,0
"04/02/08","11:06:19",45650.000,"cc",28335.502,6.00,6,0.100,41606.000,0.200,2571.000,0.300,635.000,0.500,638.000,1.000,200.000,5.000,0
"04/02/08","11:06:25",40234.000,"cc",28333.170,6.00,6,0.100,36623.000,0.200,2185.000,0.300,563.000,0.500,652.000,1.000,211.000,5.000,0
"04/02/08","11:06:31",35923.000,"cc",28279.305,6.00,6,0.100,32672.000,0.200,1921.000,0.300,546.000,0.500,568.000,1.000,216.000,5.000,0
"04/02/08","11:06:37",34119.000,"cc",28283.209,6.00,6,0.100,30832.000,0.200,1798.000,0.300,612.000,0.500,637.000,1.000,240.000,5.000,0
"04/02/08","11:06:43",35822.000,"cc",28311.951,6.00,6,0.100,32416.000,0.200,1967.000,0.300,578.000,0.500,651.000,1.000,210.000,5.000,0
"04/02/08","11:06:49",48947.000,"cc",28349.752,6.00,6,0.100,44586.000,0.200,2918.000,0.300,596.000,0.500,622.000,1.000,225.000,5.000,0
"04/02/08","11:06:55",45281.000,"cc",28319.109,6.00,6,0.100,40314.000,0.200,2893.000,0.300,895.000,0.500,884.000,1.000,295.000,5.000,0
"04/02/08","11:07:01",45730.000,"cc",28278.414,6.00,6,0.100,39717.000,0.200,3188.000,0.300,1218.000,0.500,1201.000,1.000,406.000,5.000,0
"04/02/08","11:07:07",35360.000,"cc",28343.531,6.00,6,0.100,30847.000,0.200,2180.000,0.300,967.000,0.500,995.000,1.000,371.000,5.000,0
"04/02/08","11:07:13",32132.000,"cc",28311.072,6.00,6,0.100,27832.000,0.200,2040.000,0.300,937.000,0.500,966.000,1.000,357.000,5.000,0
"04/02/08","11:07:19",41814.000,"cc",28404.389,6.00,6,0.100,36472.000,0.200,2790.000,0.300,1097.000,0.500,1084.000,1.000,371.000,5.000,0
"04/02/08","11:07:25",54254.000,"cc",28247.787,6.00,6,0.100,48747.000,0.200,3516.000,0.300,879.000,0.500,792.000,1.000,320.000,5.000,0
"04/02/08","11:07:31",50943.000,"cc",28319.264,6.00,6,0.100,45944.000,0.200,3224.000,0.300,778.000,0.500,737.000,1.000,260.000,5.000,0
"04/02/08","11:07:37",67904.000,"cc",28314.859,6.00,6,0.100,61874.000,0.200,4400.000,0.300,712.000,0.500,692.000,1.000,226.000,5.000,0
"04/02/08","11:07:43",46879.000,"cc",28285.971,6.00,6,0.100,42476.000,0.200,2811.000,0.300,692.000,0.500,670.000,1.000,230.000,5.000,0
"04/02/08","11:07:49",29497.000,"cc",28234.383,6.00,6,0.100,25223.000,0.200,1863.000,0.300,1008.000,0.500,1034.000,1.000,369.000,5.000,0
"04/02/08","11:07:55",31647.000,"cc",28376.344,6.00,6,0.100,27666.000,0.200,1827.000,0.300,882.000,0.500,920.000,1.000,352.000,5.000,0
"04/02/08","11:08:01",46044.000,"cc",28334.043,6.00,6,0.100,40215.000,0.200,3198.000,0.300,1114.000,0.500,1125.000,1.000,392.000,5.000,0
"04/02/08","11:08:07",33167.000,"cc",28324.912,6.00,6,0.100,29287.000,0.200,1872.000,0.300,830.000,0.500,872.000,1.000,306.000,5.000,0
"04/02/08","11:08:13",35987.000,"cc",28316.666,6.00,6,0.100,32135.000,0.200,2081.000,0.300,715.000,0.500,775.000,1.000,281.000,5.000,0
"04/02/08","11:08:19",62285.000,"cc",28355.693,6.00,6,0.100,56344.000,0.200,4054.000,0.300,779.000,0.500,774.000,1.000,334.000,5.000,0
"04/02/08","11:08:25",63006.000,"cc",28303.047,6.00,6,0.100,56433.000,0.200,4222.000,0.300,1039.000,0.500,973.000,1.000,339.000,5.000,0
"04/02/08","11:08:31",53668.000,"cc",28295.231,6.00,6,0.100,48033.000,0.200,3517.000,0.300,912.000,0.500,853.000,1.000,353.000,5.000,0
"04/02/08","11:08:37",28621.000,"cc",28309.811,6.00,6,0.100,25454.000,0.200,1517.000,0.300,674.000,0.500,700.000,1.000,276.000,5.000,0
"04/02/08","11:08:43",39658.000,"cc",28307.705,6.00,6,0.100,35778.000,0.200,2286.000,0.300,686.000,0.500,679.000,1.000,229.000,5.000,0
"04/02/08","11:08:49",29050.000,"cc",28336.326,6.00,6,0.100,26127.000,0.200,1487.000,0.300,592.000,0.500,630.000,1.000,214.000,5.000,0
"04/02/08","11:08:55",30086.000,"cc",28303.963,6.00,6,0.100,27153.000,0.200,1546.000,0.300,575.000,0.500,611.000,1.000,201.000,5.000,0
"04/02/08","11:09:01",30842.000,"cc",28311.256,6.00,6,0.100,27632.000,0.200,1669.000,0.300,605.000,0.500,663.000,1.000,273.000,5.000,0
"04/02/08","11:09:07",27190.000,"cc",28307.623,6.00,6,0.100,23518.000,0.200,1550.000,0.300,833.000,0.500,929.000,1.000,360.000,5.000,0
"04/02/08","11:09:13",36791.000,"cc",28345.772,6.00,6,0.100,32907.000,0.200,2086.000,0.300,734.000,0.500,776.000,1.000,288.000,5.000,0
"04/02/08","11:09:19",37572.000,"cc",28378.578,6.00,6,0.100,33651.000,0.200,2123.000,0.300,739.000,0.500,779.000,1.000,280.000,5.000,0
"04/02/08","11:09:25",46954.000,"cc",28221.147,6.00,6,0.100,42286.000,0.200,2875.000,0.300,765.000,0.500,776.000,1.000,252.000,5.000,0
"04/02/08","11:09:31",29015.000,"cc",28325.479,6.00,6,0.100,25107.000,0.200,1788.000,0.300,898.000,0.500,919.000,1.000,303.000,5.000,0
"04/02/08","11:09:37",23337.000,"cc",28315.219,6.00,6,0.100,19834.000,0.200,1357.000,0.300,905.000,0.500,919.000,1.000,322.000,5.000,0
"04/02/08","11:09:43",26935.000,"cc",28349.863,6.00,6,0.100,22947.000,0.200,1667.000,0.300,953.000,0.500,1042.000,1.000,326.000,5.000,0
"04/02/08","11:09:49",25076.000,"cc",28297.652,6.00,6,0.100,21344.000,0.200,1514.000,0.300,921.000,0.500,952.000,1.000,345.000,5.000,0
"04/02/08","11:09:55",30680.000,"cc",28322.549,6.00,6,0.100,27289.000,0.200,1767.000,0.300,680.000,0.500,699.000,1.000,245.000,5.000,0
"04/02/08","11:10:01",27910.000,"cc",28307.397,6.00,6,0.100,25096.000,0.200,1485.000,0.300,534.000,0.500,589.000,1.000,206.000,5.000,0
"04/02/08","11:10:07",43443.000,"cc",28361.455,6.00,6,0.100,39481.000,0.200,2548.000,0.300,612.000,0.500,576.000,1.000,226.000,5.000,0
"04/02/08","11:10:13",29340.000,"cc",28314.080,6.00,6,0.100,26239.000,0.200,1589.000,0.300,605.000,0.500,648.000,1.000,259.000,5.000,0
"04/02/08","11:10:19",28960.000,"cc",28289.398,6.00,6,0.100,26039.000,0.200,1571.000,0.300,542.000,0.500,613.000,1.000,195.000,5.000,0
"04/02/08","11:10:25",41333.000,"cc",28330.693,6.00,6,0.100,37322.000,0.200,2507.000,0.300,624.000,0.500,633.000,1.000,247.000,5.000,0
"04/02/08","11:10:31",33404.000,"cc",28294.164,6.00,6,0.100,29662.000,0.200,2007.000,0.300,716.000,0.500,769.000,1.000,250.000,5.000,0
"04/02/08","11:10:37",48139.000,"cc",28318.287,6.00,6,0.100,42045.000,0.200,3512.000,0.300,1082.000,0.500,1098.000,1.000,402.000,5.000,0
"04/02/08","11:10:43",63009.000,"cc",28271.863,6.00,6,0.100,57191.000,0.200,4291.000,0.300,682.000,0.500,621.000,1.000,224.000,5.000,0
"04/02/08","11:10:49",64063.000,"cc",28276.592,6.00,6,0.100,58330.000,0.200,4254.000,0.300,660.000,0.500,603.000,1.000,216.000,5.000,0
"04/02/08","11:10:55",39582.000,"cc",28330.055,6.00,6,0.100,35150.000,0.200,2545.000,0.300,827.000,0.500,784.000,1.000,276.000,5.000,0
"04/02/08","11:11:01",32596.000,"cc",28355.934,6.00,6,0.100,29008.000,0.200,1989.000,0.300,680.000,0.500,694.000,1.000,225.000,5.000,0
"04/02/08","11:11:07",53606.000,"cc",28270.088,6.00,6,0.100,48251.000,0.200,3578.000,0.300,757.000,0.500,762.000,1.000,258.000,5.000,0
"04/02/08","11:11:13",65295.000,"cc",28334.285,6.00,6,0.100,59088.000,0.200,4519.000,0.300,773.000,0.500,680.000,1.000,235.000,5.000,0
"04/02/08","11:11:19",39724.000,"cc",28304.408,6.00,6,0.100,35297.000,0.200,2484.000,0.300,818.000,0.500,821.000,1.000,304.000,5.000,0
"04/02/08","11:11:25",44174.000,"cc",28358.436,6.00,6,0.100,39618.000,0.200,2772.000,0.300,760.000,0.500,755.000,1.000,269.000,5.000,0
"04/02/08","11:11:31",94343.000,"cc",28245.283,6.00,6,0.100,84829.000,0.200,7308.000,0.300,1005.000,0.500,880.000,1.000,321.000,5.000,0
"04/02/08","11:11:37",53103.000,"cc",28305.723,6.00,6,0.100,46333.000,0.200,3820.000,0.300,1283.000,0.500,1237.000,1.000,430.000,5.000,0
"04/02/08","11:11:43",61573.000,"cc",28340.584,6.00,6,0.100,55207.000,0.200,4202.000,0.300,930.000,0.500,891.000,1.000,343.000,5.000,0
"04/02/08","11:11:49",56124.000,"cc",28283.398,6.00,6,0.100,50280.000,0.200,3701.000,0.300,932.000,0.500,920.000,1.000,291.000,5.000,0
"04/02/08","11:11:55",37934.000,"cc",28285.131,6.00,6,0.100,33886.000,0.200,2248.000,0.300,749.000,0.500,796.000,1.000,255.000,5.000,0
"04/02/08","11:12:01",68389.000,"cc",28358.229,6.00,6,0.100,62628.000,0.200,4353.000,0.300,637.000,0.500,576.000,1.000,195.000,5.000,0
"04/02/08","11:12:07",64330.000,"cc",28360.953,6.00,6,0.100,58790.000,0.200,4065.000,0.300,690.000,0.500,598.000,1.000,187.000,5.000,0
"04/02/08","11:12:13",115139.000,"cc",28301.891,6.00,6,0.100,105080.000,0.200,8366.000,0.300,844.000,0.500,642.000,1.000,207.000,5.000,0
"04/02/08","11:12:19",69211.000,"cc",28264.164,6.00,6,0.100,63140.000,0.200,4540.000,0.300,657.000,0.500,635.000,1.000,239.000,5.000,0
"04/02/08","11:12:25",54597.000,"cc",28362.686,6.00,6,0.100,48836.000,0.200,3621.000,0.300,918.000,0.500,901.000,1.000,321.000,5.000,0
"04/02/08","11:12:31",40539.000,"cc",28334.869,6.00,6,0.100,36089.000,0.200,2497.000,0.300,814.000,0.500,847.000,1.000,292.000,5.000,0
"04/02/08","11:12:37",29987.000,"cc",28343.395,6.00,6,0.100,25925.000,0.200,1798.000,0.300,974.000,0.500,950.000,1.000,340.000,5.000,0
"04/02/08","11:12:43",29697.000,"cc",28266.678,6.00,6,0.100,26682.000,0.200,1595.000,0.300,579.000,0.500,621.000,1.000,220.000,5.000,0
"04/02/08","11:12:49",51224.000,"cc",28315.883,6.00,6,0.100,46701.000,0.200,3136.000,0.300,584.000,0.500,592.000,1.000,211.000,5.000,0
"04/02/08","11:12:55",63966.000,"cc",28301.963,6.00,6,0.100,58114.000,0.200,4180.000,0.300,752.000,0.500,677.000,1.000,243.000,5.000,0
"04/02/08","11:13:01",35487.000,"cc",28322.279,6.00,6,0.100,31587.000,0.200,2125.000,0.300,712.000,0.500,769.000,1.000,294.000,5.000,0
"04/02/08","11:13:07",41942.000,"cc",28382.555,6.00,6,0.100,36447.000,0.200,2788.000,0.300,1126.000,0.500,1141.000,1.000,440.000,5.000,0
"04/02/08","11:13:13",49235.000,"cc",28264.926,6.00,6,0.100,44346.000,0.200,3063.000,0.300,767.000,0.500,801.000,1.000,258.000,5.000,0
"04/02/08","11:13:19",31760.000,"cc",28322.885,6.00,6,0.100,27909.000,0.200,1866.000,0.300,821.000,0.500,888.000,1.000,276.000,5.000,0
"04/02/08","11:13:25",50223.000,"cc",28260.455,6.00,6,0.100,45405.000,0.200,3123.000,0.300,677.000,0.500,762.000,1.000,256.000,5.000,0
"04/02/08","11:13:31",59246.000,"cc",28323.660,6.00,6,0.100,53955.000,0.200,3712.000,0.300,696.000,0.500,633.000,1.000,250.000,5.000,0
"04/02/08","11:13:37",43029.000,"cc",28354.637,6.00,6,0.100,39134.000,0.200,2505.000,0.300,546.000,0.500,626.000,1.000,218.000,5.000,0
"04/02/08","11:13:43",42872.000,"cc",28335.936,6.00,6,0.100,39017.000,0.200,2418.000,0.300,598.000,0.500,620.000,1.000,219.000,5.000,0
"04/02/08","11:13:49",35415.000,"cc",28307.949,6.00,6,0.100,31911.000,0.200,2014.000,0.300,669.000,0.500,620.000,1.000,201.000,5.000,0
"04/02/08","11:13:55",34086.000,"cc",28345.682,6.00,6,0.100,30685.000,0.200,1894.000,0.300,637.000,0.500,652.000,1.000,218.000,5.000,0
"04/02/08","11:14:01",36493.000,"cc",28291.178,6.00,6,0.100,33028.000,0.200,2076.000,0.300,627.000,0.500,571.000,1.000,191.000,5.000,0
"04/02/08","11:14:07",46652.000,"cc",28310.320,6.00,6,0.100,42387.000,0.200,2819.000,0.300,604.000,0.500,605.000,1.000,237.000,5.000,0
"04/02/08","11:14:13",49152.000,"cc",28313.170,6.00,6,0.100,44733.000,0.200,2984.000,0.300,626.000,0.500,599.000,1.000,210.000,5.000,0
"04/02/08","11:14:19",40888.000,"cc",28333.055,6.00,6,0.100,35973.000,0.200,2684.000,0.300,929.000,0.500,942.000,1.000,360.000,5.000,0
"04/02/08","11:14:25",61093.000,"cc",28357.020,6.00,6,0.100,54950.000,0.200,4132.000,0.300,881.000,0.500,823.000,1.000,307.000,5.000,0
"04/02/08","11:14:31",25979.000,"cc",28276.449,6.00,6,0.100,22014.000,0.200,1581.000,0.300,1003.000,0.500,1011.000,1.000,370.000,5.000,0
"04/02/08","11:14:37",35483.000,"cc",28289.900,6.00,6,0.100,31415.000,0.200,2190.000,0.300,721.000,0.500,854.000,1.000,303.000,5.000,0
"04/02/08","11:14:43",44904.000,"cc",28327.647,6.00,6,0.100,39580.000,0.200,3018.000,0.300,1002.000,0.500,964.000,1.000,340.000,5.000,0
"04/02/08","11:14:49",34058.000,"cc",28371.572,6.00,6,0.100,28810.000,0.200,2410.000,0.300,1211.000,0.500,1198.000,1.000,429.000,5.000,0
"04/02/08","11:14:55",57627.000,"cc",28316.996,6.00,6,0.100,51748.000,0.200,3837.000,0.300,875.000,0.500,834.000,1.000,333.000,5.000,0
"04/02/08","11:15:01",31425.000,"cc",28239.910,6.00,6,0.100,28197.000,0.200,1701.000,0.300,637.000,0.500,643.000,1.000,247.000,5.000,0
"04/02/08","11:15:07",47000.000,"cc",28335.047,6.00,6,0.100,41793.000,0.200,3051.000,0.300,871.000,0.500,949.000,1.000,336.000,5.000,0
"04/02/08","11:15:13",39590.000,"cc",28322.232,6.00,6,0.100,34931.000,0.200,2469.000,0.300,931.000,0.500,912.000,1.000,347.000,5.000,0
"04/02/08","11:15:19",41451.000,"cc",28309.174,6.00,6,0.100,36398.000,0.200,2709.000,0.300,1007.000,0.500,966.000,1.000,371.000,5.000,0
"04/02/08","11:15:25",49341.000,"cc",28300.473,6.00,6,0.100,44508.000,0.200,2996.000,0.300,796.000,0.500,759.000,1.000,282.000,5.000,0
"04/02/08","11:15:31",53053.000,"cc",28345.625,6.00,6,0.100,47109.000,0.200,3619.000,0.300,993.000,0.500,981.000,1.000,351.000,5.000,0
"04/02/08","11:15:37",77788.000,"cc",28343.568,6.00,6,0.100,69846.000,0.200,5580.000,0.300,1053.000,0.500,914.000,1.000,395.000,5.000,0
"04/02/08","11:15:43",63034.000,"cc",28265.826,6.00,6,0.100,56647.000,0.200,4327.000,0.300,888.000,0.500,885.000,1.000,287.000,5.000,0
"04/02/08","11:15:49",66998.000,"cc",28354.594,6.00,6,0.100,60660.000,0.200,4533.000,0.300,763.000,0.500,758.000,1.000,284.000,5.000,0
"04/02/08","11:15:55",51402.000,"cc",28339.938,6.00,6,0.100,47047.000,0.200,2998.000,0.300,603.000,0.500,557.000,1.000,197.000,5.000,0
"04/02/08","11:16:01",54598.000,"cc",28338.731,6.00,6,0.100,49772.000,0.200,3440.000,0.300,585.000,0.500,584.000,1.000,217.000,5.000,0
"04/02/08","11:16:07",46732.000,"cc",28345.037,6.00,6,0.100,42352.000,0.200,2916.000,0.300,602.000,0.500,630.000,1.000,232.000,5.000,0
"04/02/08","11:16:13",40119.000,"cc",28299.059,6.00,6,0.100,35937.000,0.200,2415.000,0.300,705.000,0.500,776.000,1.000,286.000,5.000,0
"04/02/08","11:16:19",57821.000,"cc",28330.498,6.00,6,0.100,52504.000,0.200,3722.000,0.300,688.000,0.500,645.000,1.000,262.000,5.000,0
"04/02/08","11:16:25",72793.000,"cc",28333.867,6.00,6,0.100,66256.000,0.200,4948.000,0.300,725.000,0.500,619.000,1.000,245.000,5.000,0
"04/02/08","11:16:31",76510.000,"cc",28319.066,6.00,6,0.100,69062.000,0.200,5403.000,0.300,933.000,0.500,832.000,1.000,280.000,5.000,0